Voltar ao catálogo

QIANFAN-51

AtivoComunicaçõesPO
NORAD 62252·PAYLOAD·🇨🇳 China

Lançado Dec 5, 2024 de Taiyuan Satellite Launch Center

Loading…

Próximas Passagens (próximas 24 horas)

TLE

AtualizadoSource: Space-Track

Época: Sep 14, 2026, 14:02 UTC

1 62252U 24232R   26257.58492318  .00000091  00000-0  12219-3 0  9990
2 62252  89.0158  13.5517 0015155 121.1007 239.1633 13.51027982105103

Acompanhe QIANFAN-51 em tempo real com AllMySat

Download on the App Store